Theta_e
342 339 340 335 320 320 315 316 323 324 326 333 330 327 326 331 331 326 349 353 353 352 356 357 360 358 358 358 359 358 358 359 358 358 358 358 358 357 358 358 358 358 356 354 353 351 350 350 349
336 335 335 327 315 312 313 321 318 325 330 332 332 330 331 331 342 343 347 353 353 354 355 357 360 358 357 357 357 358 358 358 359 358 358 358 357 356 356 355 354 353 352 351 350 349 348 347 345
333 331 325 321 317 312 313 317 320 326 332 333 330 335 333 335 344 345 350 351 352 354 356 360 360 358 358 357 357 357 357 358 358 358 357 357 356 355 355 354 354 354 353 353 352 350 349 348 349
327 327 324 316 313 319 320 325 329 331 333 336 332 329 340 345 343 347 349 349 348 350 353 358 360 359 359 359 357 356 355 355 355 355 356 356 356 355 355 354 353 354 354 355 354 353 352 350 349
323 324 317 314 317 323 329 332 333 330 333 333 332 328 335 342 348 349 348 346 345 350 352 356 359 358 358 358 358 357 356 355 354 354 353 353 352 352 352 352 353 353 354 355 355 355 354 354 352
318 321 313 310 317 323 329 332 331 330 333 332 330 332 334 342 344 348 346 346 348 348 350 353 357 358 358 357 356 356 356 356 355 354 354 353 352 352 352 352 352 353 353 354 354 354 354 354 354
314 315 312 310 316 318 321 328 329 330 328 328 331 329 335 342 347 348 346 345 344 345 346 348 352 355 357 356 355 354 353 352 352 353 354 354 353 353 353 353 352 351 352 353 353 353 354 354 354
315 315 309 310 311 316 320 323 330 328 327 333 334 326 330 342 348 345 343 343 344 344 344 345 349 348 351 351 355 354 353 354 352 348 346 346 351 350 352 352 349 351 351 352 353 354 355 356 357
314 309 307 308 308 314 321 322 332 333 330 332 334 337 341 346 346 341 340 342 345 346 347 350 350 350 351 350 349 351 349 349 348 350 348 349 352 350 348 345 345 345 346 348 349 349 350 354 354
310 307 308 312 312 313 316 322 330 328 328 332 334 339 342 343 342 339 337 337 343 342 345 351 355 354 353 352 354 352 349 350 351 349 350 349 349 347 342 346 341 344 344 346 345 344 345 348 350
309 306 309 310 312 314 316 327 330 327 325 332 328 331 335 337 337 336 337 337 339 341 344 348 350 352 352 351 350 349 349 349 348 348 347 347 345 345 344 346 346 346 347 346 347 345 344 346 346
305 308 308 309 311 311 315 329 327 327 331 335 333 334 335 334 334 336 337 338 339 340 341 344 347 349 350 348 347 347 345 342 340 339 341 343 343 344 345 345 345 346 345 346 346 346 346 343 343
307 309 310 311 311 311 324 325 327 327 332 334 331 330 330 332 333 335 336 337 337 337 339 343 346 346 346 345 343 340 339 339 340 338 337 336 338 336 338 342 342 341 343 343 344 345 346 346 341
310 311 316 316 313 319 323 326 327 325 332 332 330 327 327 328 329 333 333 333 335 336 337 340 339 339 341 339 339 336 335 335 335 334 332 332 331 333 334 335 335 337 338 339 340 342 343 344 345
318 315 320 320 319 320 326 321 322 326 330 328 328 327 326 326 328 328 329 329 332 334 335 334 336 334 334 337 335 333 331 330 328 327 328 328 327 326 328 328 328 327 330 332 332 334 336 339 341
310 315 309 321 322 323 322 315 320 326 327 325 325 325 324 324 324 324 325 326 329 332 330 331 330 330 328 326 323 321 317 319 320 321 323 323 323 323 323 322 322 323 323 323 323 323 324 326 330
308 303 307 315 322 322 320 319 320 325 325 323 324 323 322 321 320 321 321 322 323 325 327 327 327 325 328 330 328 326 324 321 320 320 319 321 321 321 321 320 321 323 320 320 321 320 321 320 321
303 303 305 309 318 321 317 321 319 323 323 324 323 322 320 319 317 318 318 319 320 320 321 321 321 322 322 321 323 324 322 319 318 318 318 320 319 320 320 319 321 321 319 320 320 321 320 320 319
307 305 304 312 319 317 317 318 317 320 321 320 322 320 319 317 317 318 317 317 318 319 320 320 320 321 319 317 315 315 314 317 316 317 318 318 319 319 320 318 319 320 319 320 321 320 320 318 320
306 305 309 314 317 318 318 316 317 320 318 320 322 320 318 317 316 316 317 317 317 318 318 318 318 319 318 317 317 316 316 316 316 316 317 318 318 319 318 319 318 320 318 320 320 320 317 317 319
306 307 310 311 315 316 316 312 315 319 319 322 322 321 319 318 316 316 316 317 317 316 316 317 317 317 317 318 317 317 317 316 314 314 314 316 316 317 318 319 319 320 319 317 319 319 319 314 319
303 309 312 313 311 306 315 303 313 317 316 319 320 319 318 318 318 318 317 316 316 315 316 317 317 316 316 317 316 316 312 310 312 313 314 315 317 317 317 318 318 317 317 318 318 319 316 315 312
308 312 314 314 311 310 310 305 313 317 314 318 320 319 319 319 318 317 317 317 315 315 315 315 316 316 315 316 315 313 313 312 312 313 314 315 315 315 315 315 317 317 316 319 320 318 319 316 316
315 313 313 311 306 299 305 304 306 313 316 320 322 321 320 318 318 318 318 317 315 314 314 314 315 314 315 315 315 314 311 310 309 310 309 310 310 311 315 315 316 318 318 318 318 317 317 315 317
309 307 299 297 297 298 304 302 305 313 316 319 323 322 320 320 318 317 316 315 314 313 313 313 314 313 314 313 313 312 310 309 309 310 307 307 306 308 312 314 314 315 316 317 318 316 316 315 313
307 306 299 292 295 299 303 297 306 316 318 319 320 324 322 319 318 317 316 316 314 313 312 312 312 312 312 313 312 311 310 310 308 308 308 309 309 310 312 314 316 315 314 316 317 314 314 315 314
305 302 307 300 302 297 302 303 310 314 315 318 318 322 319 318 318 318 316 316 314 312 312 310 311 311 312 312 312 312 310 311 309 312 312 309 311 309 312 313 314 314 313 313 313 309 310 312 313
308 309 301 303 293 292 298 298 302 307 312 317 317 319 319 319 318 318 316 315 313 312 312 311 312 310 311 311 312 310 310 310 312 311 311 312 312 313 313 313 313 313 314 313 312 310 312 311 310
305 304 305 305 302 295 294 299 309 308 311 313 318 320 320 319 318 317 315 314 313 312 312 311 311 310 310 311 310 311 309 309 310 311 312 312 312 312 312 312 313 312 313 313 312 310 310 309 310
309 307 307 300 299 301 300 299 310 312 312 315 316 320 321 320 318 316 314 313 311 311 311 310 310 310 311 311 310 310 311 311 311 310 310 311 309 310 309 310 311 311 312 313 311 310 309 309 308
Wind_Speed
9 8 5 6 8 3 8 7 4 4 2 8 9 11 12 9 8 6 4 4 7 6 8 10 7 7 8 9 9 10 11 12 11 11 10 9 8 8 7 7 6 5 5 5 5 5 4 4 4
3 4 6 6 6 4 7 6 4 6 7 6 7 6 9 11 11 10 8 6 7 8 4 8 11 8 7 7 6 6 8 8 9 9 9 8 8 7 6 6 5 5 4 4 4 3 2 2 2
7 7 7 3 4 9 11 4 5 8 8 6 4 8 5 6 11 6 9 7 8 8 6 10 9 8 8 6 6 6 6 6 6 6 6 6 6 6 5 5 5 5 5 5 3 1 1 2 3
5 7 6 3 7 9 8 8 9 11 5 7 3 8 9 10 6 5 7 7 8 8 9 10 9 8 7 7 5 5 4 4 4 4 3 4 5 5 5 4 4 3 4 4 4 4 3 3 3
7 5 3 6 10 8 7 9 4 8 8 8 4 7 9 12 9 6 7 6 9 11 7 11 8 7 7 6 5 4 4 2 0 1 1 2 3 4 4 4 5 5 6 6 6 6 5 5 5
6 5 7 8 10 8 5 2 1 3 8 7 10 12 9 6 7 9 8 9 9 9 6 8 10 7 7 5 4 5 4 4 4 5 5 6 6 6 7 8 8 9 10 10 10 10 9 9 8
11 6 1 2 8 8 6 2 0 8 9 10 3 9 8 9 10 10 8 8 8 7 8 7 9 9 8 9 8 7 6 7 7 8 9 8 8 7 7 7 6 6 8 9 10 11 12 10 10
8 7 6 6 9 9 6 3 3 3 11 7 6 8 9 7 9 8 9 9 8 8 7 9 6 7 2 11 9 7 8 8 8 8 8 7 8 2 4 8 7 9 9 10 10 12 13 12 11
5 10 11 9 8 11 7 6 6 6 13 9 6 13 11 10 9 9 9 10 9 8 8 8 7 6 5 7 7 8 7 4 3 1 3 8 4 6 7 10 6 6 8 7 7 8 9 10 14
11 12 15 2 6 8 8 6 12 9 13 16 15 13 12 11 9 13 11 7 10 10 10 11 10 10 5 4 5 5 5 6 7 9 9 6 6 6 7 1 2 4 4 7 5 5 9 10 6
11 12 4 7 8 6 7 11 6 13 11 12 14 13 13 13 12 11 11 10 9 10 9 9 7 6 8 6 5 4 5 5 6 10 10 6 5 5 5 4 3 5 2 5 4 4 6 7 7
9 7 6 5 8 7 7 12 11 3 15 18 13 12 12 12 10 10 10 9 8 10 10 9 8 8 8 6 6 6 6 7 5 5 10 7 7 9 8 6 6 6 6 7 8 5 5 7 8
11 7 7 5 5 9 12 11 14 15 15 16 15 13 13 11 10 9 9 8 7 8 8 9 10 9 9 8 7 7 6 6 6 8 10 9 6 6 5 4 4 4 6 6 6 6 7 7 7
5 4 5 5 10 11 13 18 8 8 13 14 14 13 12 11 8 7 7 8 7 6 8 9 11 10 10 7 8 5 6 5 6 6 9 10 8 8 7 6 7 7 7 8 8 8 8 8 8
8 10 9 8 12 12 17 11 10 13 12 14 13 13 12 10 9 9 8 8 8 8 8 8 8 10 9 8 8 7 7 6 6 6 7 9 9 9 9 7 6 7 8 9 8 9 8 8 8
10 10 13 11 13 11 16 15 11 11 13 12 11 10 10 10 10 9 9 9 9 9 10 9 8 8 8 7 6 5 6 5 6 7 7 10 9 10 9 7 7 9 7 7 8 9 9 9 9
9 12 10 11 4 13 15 17 13 11 11 10 10 10 9 10 9 9 10 10 10 10 9 9 9 9 7 5 4 4 4 5 5 6 6 9 8 10 9 6 8 10 7 7 8 8 9 9 10
13 7 7 12 10 10 11 16 14 11 10 11 10 9 9 9 9 9 10 10 10 11 10 10 10 12 9 6 4 3 4 5 5 6 7 9 8 9 8 6 8 9 7 8 9 10 9 9 9
2 7 8 8 2 10 8 13 12 11 10 10 11 11 10 10 10 9 8 8 9 9 10 11 12 12 9 9 9 7 8 6 6 6 8 10 9 10 9 8 8 9 8 9 10 9 10 8 8
6 8 11 6 4 10 10 10 9 11 11 12 11 11 11 12 10 9 8 7 8 9 9 10 11 12 11 8 7 6 6 6 5 6 6 8 10 9 9 9 8 9 8 8 9 10 9 7 7
10 12 12 9 10 1 9 11 14 13 10 11 12 11 11 12 12 11 9 7 8 8 8 10 10 10 10 11 7 8 5 5 6 7 6 8 9 9 9 9 8 8 7 8 8 9 11 9 9
11 6 9 13 14 5 15 4 16 17 15 15 15 13 13 12 11 11 10 8 7 7 9 9 8 9 10 11 10 9 8 7 6 6 7 7 7 8 8 8 8 7 7 7 7 7 6 8 9
11 10 11 14 6 10 16 9 12 16 18 20 18 16 14 13 13 12 11 9 8 7 8 7 7 9 10 10 9 9 9 8 7 7 9 6 6 7 9 9 8 7 6 7 8 8 9 6 6
13 12 10 8 6 11 9 8 9 12 16 19 19 17 15 15 14 12 10 9 7 6 6 6 8 9 8 9 9 9 10 10 9 10 8 8 6 6 8 9 8 8 8 8 7 7 7 7 9
11 13 9 9 8 1 5 6 7 4 2 6 19 19 17 15 14 13 12 10 7 5 6 6 9 8 9 9 9 10 9 7 9 9 8 9 7 8 9 8 7 7 7 8 8 8 7 9 8
14 9 8 4 4 4 6 6 6 6 2 5 5 17 18 16 15 13 12 9 8 6 6 7 6 8 9 9 9 7 8 7 7 7 6 6 6 6 7 7 8 8 9 9 8 8 8 8 7
10 10 6 4 2 8 1 5 11 7 5 8 8 16 18 17 16 14 12 9 8 6 7 5 7 8 8 8 6 7 7 7 6 6 6 6 7 6 6 6 7 9 10 10 9 8 9 9 8
5 10 6 8 5 6 6 6 3 8 9 9 11 15 17 17 16 14 12 10 7 6 7 5 6 7 7 6 6 6 5 6 5 6 8 9 9 10 9 9 8 8 9 10 10 8 9 9 8
7 8 1 4 5 6 6 4 7 2 1 8 11 14 16 17 15 14 12 10 9 7 6 5 5 5 5 6 5 6 5 3 6 6 7 8 8 9 9 8 7 8 8 9 8 7 8 9 9
5 4 8 6 7 3 6 10 5 5 4 4 6 12 15 15 15 14 12 11 9 7 6 6 4 4 5 4 4 5 5 5 6 6 6 7 8 8 8 7 7 8 7 6 7 7 7 9 9
Wind_Direction
177 209 262 237 233 216 116 110 69 122 171 54 38 44 79 33 6 46 89 70 123 90 117 141 121 125 126 126 125 125 122 123 124 124 122 117 111 105 101 98 93 84 76 68 59 46 45 51 40
216 221 233 276 263 182 93 111 124 129 67 78 71 31 54 77 66 98 144 138 112 118 113 123 119 122 111 110 114 116 119 121 123 124 121 117 112 108 106 107 110 117 117 113 110 102 68 36 20
243 249 269 294 298 51 78 107 140 104 98 43 95 44 27 53 53 68 89 117 103 88 109 86 108 108 104 105 115 124 126 125 125 125 130 132 128 127 131 141 150 154 159 158 151 127 354 338 327
263 200 214 334 79 79 62 80 99 117 121 67 73 77 97 45 39 49 82 90 103 96 82 78 93 98 105 109 114 125 130 135 138 145 159 166 173 183 186 192 202 218 223 216 209 204 214 234 265
239 245 212 87 92 93 88 84 72 104 83 74 352 102 84 64 89 98 106 106 97 68 52 102 76 97 103 104 112 112 109 107 161 186 303 327 322 309 296 286 282 277 271 274 273 258 247 238 234
240 282 226 104 109 108 114 95 93 68 93 112 93 108 76 90 101 109 93 80 71 95 83 95 108 87 103 109 90 69 52 24 11 360 360 349 343 337 331 325 321 317 311 306 298 290 284 277 263
266 252 302 140 133 143 117 60 213 100 106 71 125 104 97 78 87 94 101 101 92 102 121 121 109 116 102 72 58 45 37 26 18 15 12 359 344 344 330 324 312 319 304 294 287 283 278 270 267
272 266 221 196 179 124 122 157 108 78 79 107 328 134 121 104 112 117 100 91 85 82 74 99 76 80 144 121 72 58 45 38 38 37 18 353 302 262 235 270 34 346 333 325 307 280 263 256 253
254 247 235 189 206 129 135 154 78 104 108 67 67 80 105 125 140 124 111 76 64 50 55 63 53 80 35 59 91 167 113 126 202 167 40 271 334 337 327 62 347 336 330 310 327 327 322 272 249
224 233 237 83 206 151 140 180 136 144 122 107 96 101 114 117 96 66 59 57 63 45 29 11 22 11 60 62 19 35 40 31 21 10 351 347 352 1 314 333 314 245 305 244 256 279 277 249 263
205 245 159 201 223 178 113 118 139 141 124 135 120 118 110 98 85 94 75 62 48 59 39 35 46 28 0 29 347 23 17 9 22 17 357 10 345 4 352 340 346 336 18 338 321 292 297 339 309
215 229 216 188 165 202 169 115 78 52 95 97 112 111 111 102 93 90 79 73 62 54 43 34 29 28 30 360 18 13 30 21 19 27 6 1 6 2 354 356 330 341 347 357 340 331 332 298 289
236 160 188 174 190 206 125 120 97 97 112 115 108 102 92 85 86 87 89 83 76 54 38 32 35 29 22 27 24 22 20 28 17 22 26 8 20 7 345 322 349 320 322 330 324 317 313 297 270
149 197 154 202 174 165 134 133 122 130 138 123 114 97 89 86 79 86 69 62 53 55 41 28 38 32 31 42 36 33 33 24 22 32 22 12 357 356 337 345 345 347 348 340 330 341 320 308 296
155 149 145 142 154 157 143 146 93 147 143 126 122 111 107 103 92 69 60 61 45 58 50 45 51 47 38 24 21 20 19 14 22 21 31 11 3 354 328 341 342 351 331 323 328 326 324 314 315
196 207 177 143 165 163 208 139 144 161 153 135 124 113 102 86 80 75 68 63 53 50 54 49 48 52 51 42 39 38 30 13 6 3 0 3 359 355 329 340 346 344 325 331 337 334 326 318 316
198 195 202 146 193 162 224 117 157 179 169 148 140 131 120 109 92 79 76 69 65 60 53 53 44 36 23 27 26 26 20 11 3 1 5 1 355 353 334 345 347 328 332 340 343 335 324 318 310
183 209 184 173 169 200 192 97 150 169 178 162 152 145 138 126 108 99 88 77 71 64 53 48 39 27 19 8 341 345 356 11 8 7 8 357 354 353 347 345 346 331 343 346 350 335 328 311 310
113 209 178 83 124 213 179 142 167 167 181 179 167 161 153 139 122 111 99 91 86 69 58 44 41 29 19 17 5 352 355 359 356 359 2 356 356 357 357 349 349 347 353 354 349 341 333 323 346
218 196 121 117 173 232 166 161 176 174 185 192 181 177 160 147 138 131 129 118 93 79 64 54 41 33 22 9 360 345 336 344 336 357 352 8 355 359 353 353 347 355 336 14 358 1 344 349 356
215 209 163 130 139 207 175 204 192 184 204 189 196 183 164 162 158 153 154 130 112 90 67 53 39 25 24 359 357 349 336 323 359 348 359 357 355 356 358 356 353 348 336 18 4 14 15 356 354
180 211 169 154 191 190 208 263 192 184 199 204 194 188 179 162 170 161 152 142 120 98 73 57 38 22 22 8 357 355 346 352 352 339 6 332 2 355 1 356 1 11 355 16 18 24 10 5 16
97 155 162 174 208 169 194 256 104 175 210 205 202 191 183 181 174 168 156 141 121 99 76 59 38 27 14 3 3 350 5 349 345 344 338 345 4 2 3 2 4 18 6 17 35 2 14 1 14
130 138 159 205 222 234 127 254 173 176 228 203 197 189 190 179 173 165 148 145 129 120 88 67 34 24 6 5 16 11 7 353 355 353 344 352 3 351 15 0 9 1 359 25 7 9 23 13 2
179 180 199 211 198 290 79 248 304 96 128 277 187 185 190 185 175 170 166 163 153 117 72 43 28 14 11 12 17 13 3 14 2 359 6 359 2 356 2 351 6 7 9 14 3 20 20 16 13
198 204 285 235 234 85 154 247 91 94 109 160 212 179 181 187 179 177 170 166 154 124 78 51 18 20 16 18 13 21 15 31 27 25 18 19 22 7 7 4 14 21 23 22 17 34 15 26 19
166 224 17 296 159 260 163 140 170 161 159 172 165 171 176 180 184 176 165 170 150 123 85 46 25 33 29 31 31 43 39 42 36 23 9 26 35 26 29 34 36 42 35 26 1 33 12 3 10
264 129 188 203 261 267 160 241 301 164 167 171 174 181 177 184 180 170 169 160 141 124 112 70 45 39 39 44 39 49 35 54 22 36 35 35 32 35 40 43 43 41 35 30 14 25 37 31 25
163 181 239 338 308 292 295 344 82 131 166 176 187 181 180 182 177 169 168 156 155 148 129 97 57 62 66 53 38 46 58 65 29 33 35 32 35 26 27 25 20 17 21 32 33 35 31 30 24
295 244 186 248 171 244 304 293 115 136 169 211 162 170 173 176 174 170 158 163 162 160 130 99 75 92 84 60 45 60 51 25 35 35 37 39 38 31 23 17 16 17 13 16 18 14 14 12 5